Free Severe Weather Alerts by Email and Text Message   

 
Follow iAlert.com on twitter @ialertcom
Search For Active Alerts in Your Area  
  Hi Guest:  [ Sign-up / Services ] [ Login ]

Current weather by "City, St" or "zip code"  

 

Advertise Here

Hazardous Weather Conditions

Hydrologic Outlook issued April 26 at 2:43PM CDT until April 29 at 8:30AM CDT

Current Conditions: CHICAGO, ILLINOIS

Overcast


43.0 F

Last Updated on Apr 28 2017, 12:52 am CDT
Humidity: 80%
Wind Speed: SW 5.8 mph
Barometer 29.88 in
Dewpoint: 37.0 F
Visibility: 10.00 mi
Precip: --
Heat Index: NA
Wind Chill: 39 F
Current conditions at:

Chicago / Wheeling, Pal-Waukee Airport, IL (KPWK)

Lat: 42.12 Lon: -87.904

Local Radar Image active severe weather and emergency alerts image image weather storm and storm spotter reports image weather observation monitoring service image
Local
Radar
Active
Alerts
Storm Reports Weather
Monitoring

Weather Alert Notification Services


ialert severe weather and emergency alerts by text message and email ialert daily weather forecast by email and text message service ialert real-time weather-observation monitoring and alert notification service ialert storm report monitoring alert notification

Observation History for CHICAGO, ILLINOIS


Time Wind
(mph)
Vis
(mi)
Weather Precip (in) Temperature (F) Relative
Humidity
Wind
Chill
(°F)
Heat
Index
(°F)
Pressure
Air Dwpt altimeter
(in)
sea level
(mb)
12:52 am CDT SW 5.8 10.00 Overcast -- 43.0 37.0 80% 39 NA 29.88 1012.1
11:52 pm CDT SW 4.6 10.00 Mostly Cloudy -- 43.0 37.0 80% 40 NA 29.87 1011.7
10:52 pm CDT SW 8.1 10.00 Fair -- 43.0 36.0 76% 38 NA 29.85 1011.2
9:52 pm CDT W 11.5 10.00 Overcast -- 44.0 36.0 73% 38 NA 29.83 1010.4
8:52 pm CDT W 10.4 G 18.4 10.00 Overcast -- 44.0 35.1 71% 38 NA 29.80 1009.4
7:52 pm CDT SW 15.0 10.00 Overcast -- 44.0 35.1 71% 37 NA 29.77 1008.6
6:52 pm CDT SW 12.7 10.00 Overcast -- 45.0 37.0 74% 39 NA 29.74 1007.2
5:52 pm CDT W 12.7 G 21.9 10.00 Overcast -- 45.0 37.0 74% 39 NA 29.73 1006.8
4:52 pm CDT W 11.5 G 20.7 10.00 Overcast -- 44.0 39.0 83% 38 NA 29.70 1005.9
3:52 pm CDT W 15.0 G 24.2 10.00 Overcast -- 45.0 37.9 77% 38 NA 29.69 1005.4
2:52 pm CDT SW 19.6 10.00 Overcast -- 45.0 37.9 77% 37 NA 29.66 1004.5
1:52 pm CDT SW 11.5 G 24.2 10.00 Overcast -- 45.0 39.0 80% 39 NA 29.62 1003.3
12:52 pm CDT SW 15.0 G 23.0 10.00 Overcast -- 45.0 37.9 77% 38 NA 29.60 1002.3
11:52 am CDT W 15.0 G 25.3 10.00 Overcast -- 46.0 37.9 73% 40 NA 29.58 1001.6
10:52 am CDT W 15.0 G 25.3 10.00 Overcast -- 47.0 39.9 77% 41 NA 29.53 999.9
9:52 am CDT W 18.4 G 27.6 10.00 Overcast -- 46.0 42.1 86% 39 NA 29.49 998.6
8:52 am CDT W 15.0 G 26.5 7.00 Overcast -- 47.0 45.0 93% 41 NA 29.46 997.4
7:52 am CDT W 16.1 G 23.0 4.00 Fog/Mist 00.02 48.0 48.0 100% 42 NA 29.39 995.2
6:52 am CDT SW 10.4 9.00 Overcast 00.08 54.0 54.0 100% 51 NA 29.30 992.0
5:52 am CDT S 15.0 9.00 Overcast Trace 58.0 57.0 97% 55 NA 29.28 991.4
4:52 am CDT S 13.8 G 24.2 10.00 Light Rain 00.03 59.0 57.9 96% 56 NA 29.30 992.0
3:52 am CDT S 10.4 10.00 Light Rain 00.02 60.0 59.0 96% 58 NA 29.32 992.5
2:52 am CDT S 10.4 10.00 Light Rain Trace 60.0 60.1 100% 58 NA 29.36 993.8
1:52 am CDT S 12.7 8.00 Light Rain 00.03 61.0 60.1 97% 59 NA 29.38 994.4

Regional Weather Observation:


Chicago, Chicago-OHare International Airport, IL (KORD)

A Few Clouds
42.0 F

Chicago/Waukegan Regional Airport, IL (KUGN)

Overcast
43.0 F

Chicago, Chicago Midway Airport, IL (KMDW)

Partly Cloudy
43.0 F

Kenosha, Kenosha Regional Airport, WI (KENW)

Overcast
43.0 F

Chicago / West Chicago, Dupage Airport, IL (KDPA)

Partly Cloudy
39.0 F

Racine, Batten International Airport, WI (KRAC)

Overcast
43.0 F

Advertise Here


Advertise Here